Regional Weather Roundup
Issued by NWS

Home | Current Version | Previous Version | Graphics & Text | Print | Product List | Glossary On
Versions: 1 2 3 4 5 6 7 8 9 10 11 12 13 14 15 16 17 18 19 20 21 22 23 24 25 26 27 28 29 30 31 32 33 34 35 36 37 38 39 40 41 42 43 44 45 46 47 48 49 50
446
ASUS45 KBOI 271310
RWRID

IDAHO REGIONAL WEATHER ROUNDUP
NATIONAL WEATHER SERVICE BOISE ID
700 AM MDT TUE JUN 27 2017

NOTE: "FAIR" INDICATES FEW OR NO CLOUDS BELOW 12000 FEET
WITH NO SIGNIFICANT WEATHER AND/OR OBSTRUCTIONS TO VISIBILITY

IDZ012-014-271400-
SOUTHWEST IDAHO


CITY           SKY/WX    TMP DP  RH WIND       PRES   REMARKS
BOISE          MOCLDY    64  51  62 CALM      29.91S
CALDWELL       MOCLDY    61  53  75 CALM      29.90R
MOUNTAIN HOME  CLEAR     60  49  66 NW8       29.91R
$$

IDZ016-017-271400-
SOUTHCENTRAL IDAHO


CITY           SKY/WX    TMP DP  RH WIND       PRES   REMARKS
BURLEY         CLEAR     63  48  58 SW9G18    29.94R
JEROME         CLEAR     59  49  69 S8        29.95R
TWIN FALLS     CLEAR     61  48  62 SW15      29.96R
$$

IDZ019>023-271400-
SOUTHEAST IDAHO


CITY           SKY/WX    TMP DP  RH WIND       PRES   REMARKS
IDAHO FALLS    MOSUNNY   56  53  90 NW5       29.92R
POCATELLO      PTCLDY    61  53  75 S9        29.94R
REXBURG        CLOUDY    58  52  80 N5        29.93R
$$

IDZ006-010-011-018-031-032-271400-
CENTRAL IDAHO MOUNTAINS


CITY           SKY/WX    TMP DP  RH WIND       PRES   REMARKS
MCCALL         PTCLDY    51  47  86 CALM      30.00R
HAILEY         PTCLDY    57  45  62 NW7       30.00S
STANLEY          N/A     48  46  93 SE8       30.09F
SALMON         CLOUDY    57  48  72 S7        29.95R
CHALLIS        PTCLDY    57  48  72 N3        30.02S
$$

IDZ002-004-006-007-026-271400-
NORTHERN IDAHO


CITY           SKY/WX    TMP DP  RH WIND       PRES   REMARKS
LEWISTON       MOCLDY    66  56  70 CALM      29.85R
LOWELL           N/A     61  57  87 CALM      29.88R
COEUR D`ALENE  PTCLDY    59  54  83 CALM      29.86R
MULLAN PASS    MOCLDY    51  45  79 VRB7      29.97S
$$




USA.gov is the U.S. government's official web portal to all federal, state and local government web resources and services.